Вернуться в каталог

GSAT 11

АктивенСвязьGEO
NORAD 43824·PAYLOAD·🇮🇳 India

Запущен Dec 4, 2018 с Guiana Space Centre

Loading…

TLE

СвежийSource: Space-Track

Эпоха: Sep 14, 2026, 14:09 UTC

1 43824U 18100B   26257.58983441 -.00000085  00000-0  00000-0 0  9999
2 43824   0.0765 268.9556 0006676 209.4986 161.4523  1.00271917 28375

Отслеживайте GSAT 11 в реальном времени с AllMySat

Download on the App Store